[TLELIST] Archives

 

[list_settings.list_name] Current TLEs

November 11th 2011 PDT

HST 1 20580U 90037B 11313.95063566 .00002986 00000-0 21124-3 0 8844 2 20580 028.4689 144.0809 0003298 231.7151 128.3185 15.01768669981580 ISS (ZARYA) 1 25544U 98067A 11314.42579633 .00033215 00000-0 40437-3 0 4089 2 25544 051.6386 144.7210 0021785 042.1913 030.2978 15.59925535743746 CXO 1 25867U 99040B 11314.41666667 -.00000169 00000-0 00000+0 0 6647 2 25867 070.5338 021.3803 8708996 277.3636 356.8228 00.37803156 8324 ____________________________________________________________________ These 2-Line ...Continue Reading

[list_settings.list_name] Current TLEs

November 10th 2011 PDT

HST 1 20580U 90037B 11312.62148814 .00002984 00000-0 21115-3 0 8834 2 20580 028.4691 152.7722 0003462 217.7126 142.3295 15.01761083981381 ISS (ZARYA) 1 25544U 98067A 11313.14948076 .00027878 00000-0 34181-3 0 4018 2 25544 051.6410 151.1370 0021637 038.2484 062.2085 15.59840928743542 CXO 1 25867U 99040B 11314.41666667 -.00000169 00000-0 00000+0 0 6647 2 25867 070.5338 021.3803 8708996 277.3636 356.8228 00.37803156 8324 ____________________________________________________________________ These 2-Line ...Continue Reading

[list_settings.list_name] Current TLEs

November 9th 2011 PDT

HST 1 20580U 90037B 11312.02336881 .00003000 00000-0 21234-3 0 8811 2 20580 028.4678 156.6861 0003292 210.4380 149.6002 15.01757753981291 ISS (ZARYA) 1 25544U 98067A 11312.43921949 .00027731 00000-0 34058-3 0 3974 2 25544 051.6413 154.7062 0021588 035.7053 033.7251 15.59800095743438 CXO 1 25867U 99040B 11309.12500000 .00000031 00000-0 00000+0 0 6633 2 25867 070.4905 021.7726 8710501 277.3392 356.4814 00.37807879 8306 ____________________________________________________________________ These 2-Line ...Continue Reading

[list_settings.list_name] Current TLEs

November 8th 2011 PDT

HST 1 20580U 90037B 11307.90296251 +.00002828 +00000-0 +19954-3 0 08787 2 20580 028.4686 183.6078 0003830 171.1474 188.9549 15.01734480980670 ISS (ZARYA) 1 25544U 98067A 11309.96412037 +.00025121 +00000-0 +31097-3 0 03848 2 25544 051.6404 167.1488 0021562 026.4611 175.9454 15.59654384743046 CXO 1 25867U 99040B 11309.12500000 .00000031 00000-0 00000+0 0 6633 2 25867 070.4905 021.7726 8710501 277.3392 356.4814 00.37807879 8306 ____________________________________________________________________ These 2-Line ...Continue Reading

[list_settings.list_name] Current TLEs

November 7th 2011 PDT

HST 1 20580U 90037B 11307.90296251 +.00002828 +00000-0 +19954-3 0 08787 2 20580 028.4686 183.6078 0003830 171.1474 188.9549 15.01734480980670 ISS (ZARYA) 1 25544U 98067A 11308.93718750 +.00024085 +00000-0 +29906-3 0 03782 2 25544 051.6409 172.3124 0021645 022.4112 170.2640 15.59598424742888 CXO 1 25867U 99040B 11309.12500000 .00000031 00000-0 00000+0 0 6633 2 25867 070.4905 021.7726 8710501 277.3392 356.4814 00.37807879 8306 ____________________________________________________________________ These 2-Line ...Continue Reading

[list_settings.list_name] Current TLEs

November 6th 2011 PDT

HST 1 20580U 90037B 11307.90296251 +.00002828 +00000-0 +19954-3 0 08787 2 20580 028.4686 183.6078 0003830 171.1474 188.9549 15.01734480980670 ISS (ZARYA) 1 25544U 98067A 11307.82295421 +.00023951 +00000-0 +29810-3 0 03701 2 25544 051.6405 177.9124 0021574 018.3272 034.3642 15.59542061742717 CXO 1 25867U 99040B 11309.12500000 .00000031 00000-0 00000+0 0 6633 2 25867 070.4905 021.7726 8710501 277.3392 356.4814 00.37807879 8306 ____________________________________________________________________ These 2-Line ...Continue Reading

[list_settings.list_name] Current TLEs

November 5th 2011 PDT

HST 1 20580U 90037B 11306.10856795 .00002440 00000-0 17053-3 0 8770 2 20580 028.4695 195.3338 0003420 146.9247 213.1679 15.01722135980402 ISS (ZARYA) 1 25544U 98067A 11307.39278837 .00028613 00000-0 35472-3 0 3672 2 25544 051.6412 180.0751 0021741 016.7654 139.2415 15.59531792742642 CXO 1 25867U 99040B 11309.12500000 .00000031 00000-0 00000+0 0 6633 2 25867 070.4905 021.7726 8710501 277.3392 356.4814 00.37807879 8306 ____________________________________________________________________ These 2-Line ...Continue Reading

[list_settings.list_name] Current TLEs

November 4th 2011 PDT

HST 1 20580U 90037B 11306.10856795 .00002440 00000-0 17053-3 0 8770 2 20580 028.4695 195.3338 0003420 146.9247 213.1679 15.01722135980402 ISS (ZARYA) 1 25544U 98067A 11307.25525468 .00032566 00000-0 40268-3 0 3651 2 25544 051.6413 180.7658 0021746 015.8540 087.4871 15.59528357742626 CXO 1 25867U 99040B 11309.12500000 .00000031 00000-0 00000+0 0 6633 2 25867 070.4905 021.7726 8710501 277.3392 356.4814 00.37807879 8306 ____________________________________________________________________ These 2-Line ...Continue Reading

[list_settings.list_name] Current TLEs

November 3rd 2011 PDT

HST 1 20580U 90037B 11304.18123544 +.00002224 +00000-0 +15437-3 0 08623 2 20580 028.4698 207.9317 0003445 130.5397 229.5258 15.01712402980112 ISS (ZARYA) 1 25544U 98067A 11305.84325350 +.00005511 +00000-0 +74136-4 0 03564 2 25544 051.6389 187.8649 0021643 010.6279 080.2492 15.59423001742400 CXO 1 25867U 99040B 11306.50000000 +.00000079 +00000-0 +00000-0 0 06629 2 25867 070.4709 021.9450 8709502 277.3184 359.1934 00.37805725008291 ____________________________________________________________________ These 2-Line ...Continue Reading

[list_settings.list_name] Current TLEs

November 2nd 2011 PDT

HST 1 20580U 90037B 11303.18433669 +.00003257 +00000-0 +23190-3 0 08615 2 20580 028.4695 214.4549 0003387 120.3633 239.7056 15.01712866979968 ISS (ZARYA) 1 25544U 98067A 11303.91517543 +.00025396 +00000-0 +31775-3 0 03437 2 25544 051.6420 197.5485 0021820 004.3980 055.3847 15.59359381742101 CXO 1 25867U 99040B 11303.83333333 -.00000034 +00000-0 +00000-0 0 06611 2 25867 070.4526 022.1081 8708551 277.2968 356.2497 00.37807499008284 ____________________________________________________________________ These 2-Line ...Continue Reading
  • This mailing list is a public mailing list - anyone may join or leave, at any time.
  • This mailing list is announce-only.

International Space Station (ISS) / Hubble Space Telescope (HST) / Chandra X-Ray Observatory Orbital Data via EMAIL

Privacy Policy:

Private list